sat.trackr.live / text

‹ back to catalog

STARLINK-5090

NORAD 56137 · 2023-046AX

PAYLOAD ACTIVE UNKNOWN

§ Identity

Operator
Country
US
Launch date
2023-03-29
Launch site
AFETR
Launch vehicle
Mass (kg)
RCS (m²)

Purposes: comms

External: N2YO · Heavens-Above · Gunter

§ Orbital elements

Epoch: 2026-09-20T00:50:35.304576Z

Period
94.27 min
Inclination
43.0020°
Eccentricity
0.0001404
Mean motion
15.27576551 rev/d
Perigee alt
482.1 km
Apogee alt
484.0 km
Semi-major
6,861.2 km
B*
4.8170e-5
RAAN
129.3482°
Arg perigee
266.8132°
Mean anomaly
93.2559°
Rev number
19,192

§ Raw data

STARLINK-50901 56137U 23046AX  26263.03513084  .00001063  00000+0  48170-4 0  99932 56137  43.0020 129.3482 0001404 266.8132  93.2559 15.27576551191928

JSON: /api/v1/satellites/56137 · /tle

For live sub-satellite position, see the globe view (requires WebGL).

§ Visibility from observer

Set your observer location to see the next 7 days of passes ≥ 10°. The values pass through the URL so the page stays shareable.

No JS? Fill the form by hand. The geolocation button needs JavaScript.